SCP
0 0 0 0 0 0 0 0 0 0 0 0 0 0 0 0 0 0 0 0 0 0 0 0 0 0 0 0 0 0 0 0 0 0 1 1 1 0 0 0 0 0 0
0 0 0 0 0 0 0 0 0 0 0 0 0 0 0 0 0 0 0 0 0 0 0 0 0 0 0 0 0 0 0 0 0 0 0 0 0 0 0 0 0 0 0
0 0 0 0 0 0 0 0 0 0 1 0 0 0 0 0 0 0 0 0 0 0 0 0 0 0 0 0 0 0 0 0 0 0 0 0 0 0 0 0 0 0 0
0 0 1 1 1 0 0 0 0 1 1 1 1 0 0 0 0 0 0 0 0 0 0 0 0 0 0 0 0 0 0 0 0 0 0 0 0 0 0 0 0 0 0
0 0 0 1 1 1 0 0 1 1 1 1 0 0 0 0 0 0 0 0 0 0 0 0 0 0 0 0 0 0 0 0 0 0 0 0 0 0 0 0 0 0 0
0 0 0 0 0 0 0 0 1 1 1 1 0 0 0 0 0 0 0 0 0 0 0 0 0 0 0 0 0 0 0 0 0 0 0 0 0 0 0 0 0 0 0
0 0 0 0 0 0 0 0 0 1 0 0 0 0 0 0 0 0 0 0 0 0 0 0 0 0 0 0 0 0 0 0 0 0 0 0 0 0 0 0 0 0 0
0 0 0 0 0 0 0 0 0 0 0 0 0 0 0 0 0 0 0 0 0 0 0 0 0 0 0 0 0 0 0 0 0 0 0 0 0 0 0 0 0 0 0
0 0 0 0 0 0 0 0 0 0 0 0 0 0 0 0 0 0 0 0 0 0 0 0 0 0 0 0 0 0 0 0 0 0 0 0 0 0 0 0 0 0 0
0 0 0 0 0 0 0 0 0 0 0 0 0 0 0 0 0 0 0 0 0 0 0 0 0 0 0 0 0 0 0 0 0 0 0 0 0 0 0 0 0 0 0
0 0 0 0 0 0 0 0 0 0 0 0 0 0 0 0 0 0 0 0 0 0 0 0 0 0 0 0 0 0 0 0 0 0 0 0 0 0 0 0 0 0 0
0 0 0 0 0 0 0 0 0 0 0 0 0 0 0 0 0 0 0 0 0 0 0 0 0 0 0 0 0 0 0 0 0 0 0 0 0 0 0 0 0 0 0
0 0 0 0 0 0 0 0 0 0 0 0 0 0 0 0 0 0 0 0 0 0 0 0 0 0 0 0 0 0 0 0 0 0 0 0 0 0 0 0 0 0 0
0 0 0 0 0 0 0 0 0 0 0 0 0 0 0 0 0 0 0 0 0 0 0 0 0 0 0 0 0 0 0 0 0 0 0 0 0 0 0 0 0 0 0
0 0 0 0 0 0 0 0 0 0 0 0 0 0 0 0 0 0 0 0 0 0 0 0 0 0 0 0 0 0 0 0 0 0 0 0 0 0 0 0 0 0 0
0 0 0 0 0 0 0 0 0 0 0 0 0 0 0 0 0 0 0 0 0 0 0 0 0 0 0 0 0 0 0 0 0 0 0 0 0 0 0 0 0 0 0
0 0 0 0 0 0 0 0 0 0 0 0 0 0 0 0 0 0 0 0 0 0 0 0 0 0 0 0 0 0 0 0 0 0 0 0 0 0 0 0 0 0 0
0 0 0 0 0 0 0 0 0 0 0 0 0 0 0 0 0 0 0 0 0 0 0 0 0 0 0 0 0 0 0 0 0 0 0 0 0 0 0 0 0 0 0
0 0 0 0 0 0 0 0 0 0 0 0 0 0 0 0 0 0 0 0 0 0 0 0 0 0 0 0 0 0 0 0 0 0 0 0 0 0 0 0 0 0 0
0 0 0 0 0 0 0 0 0 0 0 0 0 0 0 0 0 0 0 0 0 0 0 0 0 0 0 0 0 0 0 0 0 0 0 0 0 0 0 0 0 0 0
0 0 0 0 0 0 0 0 0 0 0 0 0 0 0 0 0 0 0 0 0 0 0 0 0 0 0 0 0 0 0 0 0 0 0 0 0 0 0 0 0 0 0
0 0 0 0 0 0 0 0 0 0 0 0 0 0 0 0 0 0 0 0 0 0 0 0 0 0 0 0 0 0 0 0 0 0 0 0 0 0 0 0 0 0 0
0 0 0 0 0 0 0 0 0 0 0 0 0 0 0 0 0 0 0 0 0 0 0 0 0 0 0 0 0 0 0 0 0 0 0 0 0 0 0 0 0 0 0
0 0 0 0 0 0 0 0 0 0 0 0 0 0 0 0 0 0 0 0 0 0 0 0 0 0 0 0 0 0 0 0 0 0 0 0 0 0 0 0 0 0 0
1 1 1 1 0 0 0 0 0 0 0 0 0 0 0 0 0 0 0 0 0 0 0 0 0 0 0 0 0 0 0 0 0 0 0 0 0 0 0 0 0 0 0
1 1 1 1 1 0 0 0 0 0 0 0 0 0 0 0 0 0 0 0 0 0 0 0 0 0 0 0 0 0 0 0 0 0 0 0 0 0 0 0 0 0 0
Wind_Speed
3 2 2 2 3 2 3 3 3 3 5 5 5 6 6 6 5 4 3 7 6 6 7 7 8 8 8 9 9 10 10 10 10 9 9 8 8 8 8 8 8 9 9
2 3 3 3 3 3 2 3 3 4 5 4 5 5 6 5 4 4 4 5 8 7 7 7 8 8 9 8 8 9 9 10 10 10 9 9 9 8 8 8 8 8 8
3 3 3 3 2 2 2 3 4 4 4 5 6 5 5 5 5 5 4 4 5 8 8 7 7 8 8 9 9 9 9 9 10 10 10 10 9 9 9 9 9 9 8
4 4 3 3 2 3 3 3 4 4 3 4 4 4 4 4 5 5 4 4 3 3 6 7 7 6 7 8 9 9 10 10 10 10 11 11 11 10 9 9 10 10 9
4 4 3 2 3 3 2 3 2 3 3 3 3 3 3 4 4 4 4 4 4 3 3 6 7 7 6 7 8 9 9 10 10 10 11 12 11 11 10 10 10 10 10
3 3 3 2 3 2 2 2 2 2 2 2 3 1 2 2 3 3 4 4 4 5 5 4 5 7 9 8 8 8 9 9 9 10 10 11 12 11 11 11 11 11 11
2 3 3 2 3 2 2 3 2 3 2 1 2 1 2 3 3 3 3 3 4 5 5 5 5 4 5 10 10 9 10 10 10 10 10 11 11 12 11 11 11 10 10
2 2 2 2 2 2 2 2 2 2 1 1 2 2 2 3 3 3 3 4 4 4 5 6 5 5 5 4 6 10 9 9 10 10 10 10 10 12 12 12 12 11 10
2 2 2 1 1 2 1 2 3 3 2 2 2 3 2 1 1 3 3 3 3 3 4 4 6 5 6 5 5 8 8 8 9 10 10 10 10 10 12 13 13 12 12
1 1 1 1 2 2 1 3 2 3 3 2 2 2 3 2 3 2 3 3 4 4 4 4 4 5 5 5 3 3 5 6 7 9 10 10 10 10 11 12 13 13 13
1 1 1 2 2 2 1 2 1 3 2 3 2 2 2 2 4 4 3 2 3 3 4 4 3 3 4 4 4 3 4 4 5 6 7 8 9 9 10 11 11 12 13
1 1 0 1 1 1 1 2 2 3 2 3 3 3 2 2 2 3 3 3 3 3 3 3 3 3 3 4 4 2 3 3 4 4 5 7 8 9 10 11 11 12 12
1 1 0 0 1 1 1 2 2 2 2 2 3 2 2 3 2 3 3 3 3 3 3 3 3 3 3 3 2 3 3 4 4 5 5 6 7 8 9 10 11 11 11
1 1 0 1 1 1 2 2 2 2 2 2 3 3 3 3 3 3 3 4 4 4 4 4 2 2 2 3 0 2 3 4 5 5 6 6 7 7 8 9 9 10 10
1 1 0 1 1 1 1 1 1 1 1 2 3 3 4 3 3 3 3 4 4 4 4 3 3 2 2 2 1 3 3 2 4 4 5 6 7 7 7 8 8 8 9
1 0 1 1 1 1 1 1 1 1 1 2 2 2 3 3 2 3 3 4 4 5 4 2 2 2 2 3 2 4 3 3 4 5 6 6 6 6 6 7 7 8 8
1 1 1 1 1 1 1 1 2 1 2 2 2 3 3 4 3 3 3 3 4 4 4 3 2 2 2 4 2 4 4 5 4 7 7 6 6 7 7 7 7 7 7
1 1 1 1 1 1 1 1 2 2 2 3 3 3 3 2 3 4 3 4 4 3 4 4 3 3 3 4 4 5 5 4 4 5 7 7 7 7 8 8 8 8 7
1 1 1 1 1 1 1 2 2 3 3 3 3 3 3 3 3 3 4 4 3 3 4 4 4 3 3 3 4 5 5 4 6 4 7 9 8 8 9 9 9 9 8
1 1 1 1 1 1 2 2 2 2 3 3 3 3 3 3 3 4 4 4 4 4 4 5 4 4 4 4 4 5 5 4 5 5 5 5 7 10 11 10 10 10 10
2 2 2 2 2 2 2 2 3 3 3 3 3 3 3 2 3 4 4 4 4 4 4 4 4 4 4 3 4 5 5 5 5 5 5 5 5 6 7 10 11 10 10
2 2 3 3 3 2 1 1 4 4 4 4 4 4 3 3 2 3 3 4 5 5 5 5 5 4 5 5 4 5 5 5 5 3 5 5 5 5 4 5 6 9 11
3 3 3 3 3 1 1 2 4 5 5 4 4 4 4 2 3 3 4 6 6 6 6 6 7 6 6 5 5 6 5 6 6 5 5 6 5 5 4 3 5 8 9
3 3 3 3 3 2 2 3 4 6 4 4 4 4 4 4 3 4 5 5 5 4 5 6 6 7 6 5 6 7 7 7 7 6 5 6 5 5 5 3 6 9 9
3 3 3 3 3 2 3 3 5 5 4 4 4 4 4 4 2 3 6 6 5 5 5 6 6 6 5 5 6 6 6 6 6 5 4 5 5 5 5 5 4 9 10
3 3 2 3 3 2 3 3 5 5 4 4 4 4 3 4 2 3 6 6 6 5 5 4 5 6 7 7 8 8 7 6 6 5 3 4 5 5 5 4 3 4 6
Wind_Direction
236 232 234 239 247 241 225 226 237 232 237 233 238 241 241 235 237 237 188 175 197 214 220 220 218 217 221 225 226 226 223 223 218 213 208 205 206 210 212 213 213 210 206
229 235 229 233 242 243 251 249 241 232 236 239 242 241 244 236 225 233 233 187 192 205 220 226 226 225 226 227 226 221 217 218 216 213 211 208 207 209 211 210 211 212 209
226 240 242 239 243 241 230 240 247 244 238 232 233 234 234 233 230 224 233 234 205 198 209 223 228 229 233 232 227 222 218 218 218 215 213 214 212 212 213 210 210 211 210
243 247 244 249 247 245 237 229 240 246 242 243 239 237 231 219 222 222 227 229 238 228 196 199 217 229 234 234 233 228 223 221 221 221 218 218 217 216 216 215 213 211 211
240 250 257 263 247 247 251 251 229 253 242 244 241 226 234 226 216 217 222 230 229 231 224 179 201 219 231 236 238 235 231 226 222 223 224 222 218 215 217 218 217 217 214
243 256 245 244 255 250 250 254 242 236 246 243 261 249 234 223 220 216 226 220 221 225 229 225 211 209 218 232 239 241 238 235 229 224 226 225 217 215 217 219 220 221 219
253 254 269 240 257 255 254 240 234 215 226 228 244 238 214 204 201 218 223 229 218 220 227 233 237 237 211 211 224 235 240 240 236 228 225 222 217 215 215 217 218 219 221
265 244 265 262 257 249 227 234 237 253 238 217 259 244 218 192 207 214 213 220 228 220 219 225 233 237 251 232 195 214 232 239 239 235 230 226 221 219 218 218 220 220 222
252 274 236 256 256 249 214 222 222 230 237 227 241 273 263 246 213 198 220 225 230 237 232 224 228 233 239 248 237 202 217 233 240 240 235 230 227 225 223 223 222 223 224
214 233 233 239 263 279 250 237 202 228 231 230 215 267 288 297 257 224 210 210 225 234 245 246 237 230 238 244 244 251 213 227 240 242 239 233 230 230 229 227 226 225 224
179 215 228 246 264 271 264 271 233 247 248 254 244 238 253 253 255 260 252 242 231 229 233 237 245 245 238 244 246 219 182 214 232 236 236 235 234 232 232 231 229 229 229
146 116 256 269 257 269 246 248 245 242 261 263 263 256 255 261 248 252 253 254 258 251 245 249 244 244 241 235 240 145 177 212 229 235 237 238 237 236 235 234 234 233 233
129 111 47 280 282 281 261 248 234 246 238 241 249 262 264 269 274 263 256 258 261 258 245 240 241 245 245 244 234 164 188 209 221 229 240 247 246 242 242 240 238 236 234
69 81 176 256 273 269 260 245 246 231 225 242 246 260 262 262 269 267 263 264 262 255 246 246 239 233 253 252 84 188 206 194 213 227 235 242 247 245 244 243 241 239 235
45 73 246 249 250 261 276 269 270 253 236 243 241 235 248 253 259 264 264 267 268 268 260 239 239 224 234 241 194 243 247 172 194 216 230 239 243 243 244 242 241 237 233
332 257 236 253 249 217 237 270 269 261 256 257 259 270 267 259 260 260 259 259 263 268 272 273 249 238 239 251 200 250 253 182 201 212 223 233 238 239 241 241 240 236 229
246 233 224 224 240 256 257 264 289 290 269 270 266 259 263 275 273 269 261 259 259 263 268 277 281 272 245 268 248 253 248 244 221 199 210 224 231 236 238 240 240 236 228
229 232 244 252 260 265 271 265 281 283 270 268 271 272 273 268 265 270 269 261 262 268 267 267 269 265 249 249 253 256 256 249 252 188 200 218 228 234 236 237 237 234 229
211 251 262 258 266 276 276 275 276 278 278 279 277 276 281 278 270 269 271 270 261 251 257 260 259 262 257 251 254 251 256 263 264 218 203 209 218 228 233 233 233 231 229
205 232 249 253 264 274 283 283 279 287 289 285 280 276 281 282 281 282 272 272 275 272 256 258 258 254 250 243 250 256 253 248 260 263 254 236 218 217 225 228 229 227 224
212 214 225 233 239 242 272 289 287 288 288 288 285 277 274 305 333 309 300 294 278 270 266 264 263 263 260 258 254 256 260 262 257 263 268 259 239 234 221 218 220 220 217
225 227 234 241 248 266 75 331 293 284 285 287 285 283 266 232 234 231 266 287 290 276 277 276 271 271 270 269 272 271 271 271 272 264 268 269 265 262 255 246 205 197 205
228 232 242 246 247 235 172 226 265 276 278 285 290 289 286 300 271 278 237 227 240 243 253 269 275 277 274 273 274 270 269 276 284 289 281 276 271 269 264 250 180 190 199
235 240 245 248 251 216 174 228 259 256 267 271 273 277 283 291 300 300 288 277 269 251 240 246 266 275 279 283 267 265 272 268 267 261 256 270 276 276 277 266 187 189 199
232 234 231 237 247 203 167 222 261 256 252 257 258 262 272 277 322 296 275 276 277 269 234 231 251 265 284 283 280 272 267 264 269 272 253 260 273 277 276 269 211 186 194
235 244 234 234 240 231 168 205 253 265 262 260 245 235 219 262 285 274 271 274 277 283 287 262 240 237 243 240 231 248 264 268 274 276 270 263 268 272 272 261 258 210 204